Location: Devore Heights
(34.2372°N, 117.4156°W)
Time: 08:10:57
(UTC+00:00)

Altair - Pass Details

Date: 19 September 2024
Orbit: 1501 x 1682 km, 47.2° (Epoch: 07 October)

Event Time Altitude Azimuth Distance (km) Brightness Sun altitude
Rises 16:08:30 0° 304° (NW) 4,938 9.6 30.0°
Reaches altitude 10° 16:11:43 10° 301° (WNW) 3,946 9.2 30.6°
Maximum altitude 16:21:40 63° 224° (SW) 1,821 8.3 32.5°
Drops below altitude 10° 16:31:22 10° 146° (SE) 3,847 10.6 34.4°
Sets 16:34:29 0° 143° (SE) 4,808 10.9 34.9°
